sat.trackr.live / text

‹ back to catalog

UNKNOWN

NORAD 81069

UNKNOWN UNKNOWN UNKNOWN

§ Identity

Operator
Country
Launch date
Launch site
Launch vehicle
Mass (kg)
RCS (m²)

External: N2YO · Heavens-Above

§ Orbital elements

Epoch: 2026-09-16T00:45:52.208928Z

Period
105.71 min
Inclination
100.3778°
Eccentricity
0.0067420
Mean motion
13.62250637 rev/d
Perigee alt
977.6 km
Apogee alt
1,077.5 km
Semi-major
7,405.7 km
B*
3.5633e-3
RAAN
182.3751°
Arg perigee
76.4392°
Mean anomaly
284.4245°
Rev number
55,366

§ Raw data

UNKNOWN1 81069U          26259.03185427  .00002751  00000+0  35633-2 0  99942 81069 100.3778 182.3751 0067420  76.4392 284.4245 13.62250637553668

JSON: /api/v1/satellites/81069 · /tle

For live sub-satellite position, see the globe view (requires WebGL).

§ Visibility from observer

Set your observer location to see the next 7 days of passes ≥ 10°. The values pass through the URL so the page stays shareable.

No JS? Fill the form by hand. The geolocation button needs JavaScript.